EN

Hourly Weather Bar

Today, 16 January, Saturday

Time Temperature Precipitation Wind Pressure Humidity
00:00 -12°C° 0.1 mm 3 mps 732 mmHg 89%
01:00 -12°C° 0.1 mm 4 mps 732 mmHg 90%
02:00 -11°C° 0 mm 4 mps 732 mmHg 91%
03:00 -12°C° 0.1 mm 4 mps 732 mmHg 91%
04:00 -12°C° 0.1 mm 4 mps 732 mmHg 90%
05:00 -12°C° 0.1 mm 4 mps 732 mmHg 90%
06:00 -15°C° 0 mm 4 mps 732 mmHg 89%
07:00 -16°C° 0 mm 4 mps 732 mmHg 87%
08:00 -18°C° 0 mm 5 mps 733 mmHg 87%
09:00 -19°C° 0 mm 5 mps 733 mmHg 85%
10:00 -19°C° 0 mm 5 mps 733 mmHg 82%
11:00 -18°C° 0 mm 4 mps 734 mmHg 80%
12:00 -17°C° 0 mm 4 mps 734 mmHg 79%
13:00 -17°C° 0 mm 4 mps 734 mmHg 77%
14:00 -16°C° 0 mm 4 mps 734 mmHg 76%
15:00 -16°C° 0 mm 4 mps 734 mmHg 78%
16:00 -15°C° 0 mm 3 mps 734 mmHg 81%
17:00 -14°C° 0 mm 2 mps 734 mmHg 83%
18:00 -14°C° 0 mm 2 mps 734 mmHg 85%
19:00 -13°C° 0 mm 1 mps 734 mmHg 87%
20:00 -13°C° 0 mm 1 mps 734 mmHg 89%
21:00 -13°C° 0 mm 1 mps 734 mmHg 89%
22:00 -13°C° 0 mm 1 mps 734 mmHg 89%
23:00 -13°C° 0 mm 1 mps 734 mmHg 90%

Tomorrow, 17 January, Sunday

Time Temperature Precipitation Wind Pressure Humidity
00:00 -13°C° 0 mm 1 mps 733 mmHg 90%
01:00 -13°C° 0 mm 1 mps 733 mmHg 90%
02:00 -14°C° 0 mm 2 mps 733 mmHg 90%
03:00 -14°C° 0 mm 2 mps 733 mmHg 90%
04:00 -13°C° 0 mm 2 mps 733 mmHg 90%
05:00 -13°C° 0 mm 2 mps 733 mmHg 90%
06:00 -13°C° 0 mm 2 mps 733 mmHg 91%
07:00 -13°C° 0 mm 2 mps 733 mmHg 92%
08:00 -12°C° 0 mm 2 mps 733 mmHg 93%
09:00 -10°C° 0.1 mm 2 mps 733 mmHg 91%
10:00 -10°C° 0.1 mm 3 mps 733 mmHg 89%
11:00 -10°C° 0.1 mm 3 mps 733 mmHg 87%
12:00 -9°C° 0.1 mm 3 mps 733 mmHg 87%
13:00 -9°C° 0.1 mm 3 mps 733 mmHg 86%
14:00 -9°C° 0.1 mm 4 mps 733 mmHg 86%
15:00 -9°C° 0.1 mm 3 mps 733 mmHg 88%
16:00 -9°C° 0.1 mm 3 mps 733 mmHg 90%
17:00 -10°C° 0.1 mm 3 mps 733 mmHg 93%
18:00 -12°C° 0.1 mm 3 mps 733 mmHg 93%
19:00 -12°C° 0.1 mm 3 mps 734 mmHg 92%
20:00 -13°C° 0.1 mm 3 mps 734 mmHg 92%
21:00 -13°C° 0.1 mm 3 mps 734 mmHg 92%
22:00 -14°C° 0.1 mm 3 mps 734 mmHg 91%
23:00 -14°C° 0.1 mm 3 mps 734 mmHg 91%

Day after tomorrow, 18 January, Monday

Time Temperature Precipitation Wind Pressure Humidity
00:00 -14°C° 0.2 mm 3 mps 735 mmHg 91%
01:00 -15°C° 0.2 mm 4 mps 735 mmHg 91%
02:00 -15°C° 0.2 mm 4 mps 735 mmHg 91%
03:00 -16°C° 0.1 mm 4 mps 735 mmHg 90%
04:00 -17°C° 0.1 mm 4 mps 735 mmHg 89%
05:00 -18°C° 0.1 mm 4 mps 735 mmHg 88%
06:00 -18°C° 0 mm 4 mps 735 mmHg 89%
07:00 -19°C° 0 mm 4 mps 735 mmHg 89%
08:00 -20°C° 0 mm 4 mps 736 mmHg 90%
09:00 -19°C° 0 mm 4 mps 736 mmHg 89%
10:00 -19°C° 0 mm 4 mps 736 mmHg 88%
11:00 -19°C° 0 mm 4 mps 736 mmHg 87%
12:00 -19°C° 0 mm 4 mps 736 mmHg 86%
13:00 -18°C° 0 mm 4 mps 736 mmHg 84%
14:00 -18°C° 0 mm 4 mps 736 mmHg 83%
15:00 -18°C° 0 mm 4 mps 736 mmHg 85%
16:00 -18°C° 0 mm 3 mps 737 mmHg 87%
17:00 -18°C° 0 mm 3 mps 737 mmHg 89%
18:00 -18°C° 0 mm 3 mps 737 mmHg 89%
19:00 -19°C° 0 mm 3 mps 737 mmHg 89%
20:00 -19°C° 0 mm 3 mps 737 mmHg 90%
21:00 -19°C° 0 mm 3 mps 737 mmHg 90%
22:00 -18°C° 0 mm 2 mps 737 mmHg 91%
23:00 -18°C° 0 mm 2 mps 738 mmHg 92%

19 January, Tuesday

Time Temperature Precipitation Wind Pressure Humidity
00:00 -18°C° 0 mm 2 mps 738 mmHg 92%
01:00 -18°C° 0 mm 2 mps 738 mmHg 92%
02:00 -18°C° 0 mm 2 mps 738 mmHg 92%
03:00 -18°C° 0 mm 2 mps 737 mmHg 91%
04:00 -18°C° 0 mm 2 mps 737 mmHg 91%
05:00 -17°C° 0 mm 2 mps 737 mmHg 90%
06:00 -17°C° 0 mm 2 mps 737 mmHg 90%
07:00 -17°C° 0 mm 2 mps 737 mmHg 90%
08:00 -17°C° 0 mm 2 mps 737 mmHg 91%
09:00 -16°C° 0 mm 2 mps 737 mmHg 88%
10:00 -14°C° 0 mm 2 mps 737 mmHg 86%
11:00 -13°C° 0 mm 2 mps 737 mmHg 84%
12:00 -12°C° 0 mm 2 mps 737 mmHg 84%
13:00 -10°C° 0 mm 2 mps 737 mmHg 83%
14:00 -10°C° 0 mm 3 mps 736 mmHg 83%
15:00 -10°C° 0.1 mm 3 mps 736 mmHg 87%
16:00 -10°C° 0.1 mm 3 mps 736 mmHg 90%
17:00 -9°C° 0.1 mm 2 mps 736 mmHg 93%
18:00 -10°C° 0.1 mm 3 mps 736 mmHg 93%
19:00 -10°C° 0.1 mm 3 mps 736 mmHg 92%
20:00 -10°C° 0.1 mm 3 mps 736 mmHg 92%
21:00 -10°C° 0 mm 3 mps 736 mmHg 92%
22:00 -10°C° 0 mm 3 mps 736 mmHg 92%
23:00 -9°C° 0 mm 2 mps 736 mmHg 92%

20 January, Wednesday

Time Temperature Precipitation Wind Pressure Humidity
00:00 -9°C° 0 mm 2 mps 736 mmHg 90%
01:00 -9°C° 0 mm 2 mps 736 mmHg 88%
02:00 -9°C° 0 mm 3 mps 736 mmHg 86%
03:00 -9°C° 0 mm 3 mps 736 mmHg 87%
04:00 -9°C° 0 mm 3 mps 735 mmHg 87%
05:00 -9°C° 0 mm 3 mps 735 mmHg 87%
06:00 -9°C° 0 mm 3 mps 735 mmHg 86%
07:00 -9°C° 0 mm 3 mps 735 mmHg 86%
08:00 -9°C° 0 mm 3 mps 735 mmHg 85%
09:00 -8°C° 0 mm 3 mps 735 mmHg 84%
10:00 -7°C° 0 mm 3 mps 735 mmHg 82%
11:00 -7°C° 0 mm 4 mps 735 mmHg 80%
12:00 -6°C° 0 mm 3 mps 735 mmHg 81%
13:00 -5°C° 0 mm 3 mps 735 mmHg 82%
14:00 -5°C° 0 mm 3 mps 735 mmHg 82%
15:00 -5°C° 0 mm 3 mps 735 mmHg 84%
16:00 -6°C° 0 mm 3 mps 735 mmHg 86%
17:00 -6°C° 0 mm 3 mps 735 mmHg 88%
18:00 -6°C° 0 mm 3 mps 735 mmHg 88%
19:00 -7°C° 0 mm 3 mps 735 mmHg 88%
20:00 -7°C° 0 mm 3 mps 735 mmHg 89%
21:00 -7°C° 0 mm 3 mps 735 mmHg 89%
22:00 -7°C° 0 mm 3 mps 735 mmHg 89%
23:00 -7°C° 0 mm 3 mps 735 mmHg 90%

21 January, Thursday

Time Temperature Precipitation Wind Pressure Humidity
00:00 -7°C° 0 mm 3 mps 735 mmHg 90%
01:00 -7°C° 0 mm 3 mps 735 mmHg 90%
02:00 -8°C° 0 mm 4 mps 735 mmHg 91%
03:00 -7°C° 0 mm 3 mps 735 mmHg 91%
04:00 -7°C° 0 mm 3 mps 735 mmHg 91%
05:00 -7°C° 0 mm 3 mps 735 mmHg 91%
06:00 -7°C° 0 mm 3 mps 735 mmHg 90%
07:00 -6°C° 0 mm 3 mps 735 mmHg 90%
08:00 -6°C° 0 mm 3 mps 735 mmHg 90%
09:00 -5°C° 0 mm 4 mps 735 mmHg 88%
10:00 -4°C° 0 mm 4 mps 735 mmHg 86%
11:00 -3°C° 0 mm 4 mps 735 mmHg 84%
12:00 -2°C° 0 mm 4 mps 735 mmHg 83%
13:00 -2°C° 0 mm 4 mps 734 mmHg 82%
14:00 -1°C° 0 mm 4 mps 734 mmHg 81%
15:00 -2°C° 0 mm 4 mps 734 mmHg 83%
16:00 -3°C° 0 mm 4 mps 734 mmHg 84%
17:00 -3°C° 0 mm 4 mps 734 mmHg 86%
18:00 -3°C° 0 mm 4 mps 733 mmHg 86%
19:00 -4°C° 0 mm 5 mps 733 mmHg 86%
20:00 -4°C° 0 mm 5 mps 733 mmHg 87%
21:00 -4°C° 0 mm 5 mps 733 mmHg 87%
22:00 -4°C° 0 mm 5 mps 733 mmHg 87%
23:00 -2°C° 0 mm 5 mps 733 mmHg 87%
Show more

We Need Your Consent

Meteoprog and our Service Providers may store and access personal data such as cookies, device identifiers or other similar technologies on your device and process such data to personalise content and ads, as well as provide social media features and to analyse the traffic.

  • Store and/or access information on your device

    Cookies, device identifiers or other information can be stored or accessed on your device for the purposes indicated above.

  • Personalised ads and content, ad and content measurement, audience insights, and products development

    Ads and content can be personalised based on a profile. More data can be added to better personalise ads and content. Ad and content performance can be measured. Insights about the audience who saw the ads and content can be derived. Such data can be used to develop or improve user’s experience, systems and software.

By clicking ‘I Agree’ you will allow the use of indicated cookies, device identifiers, web beacons or other similar technologies. Your settings can be changed in the browser on your device.

For certain purposes, legitimate interests may be relied on, rather than consent. You can read more about this in our Privacy and Cookie Policy.